Regional Weather Roundup
Issued by NWS Wakefield, VA

Home | Current Version | Previous Version | Text Only | Print | Product List | Glossary On
Versions: 1 2 3 4 5 6 7 8 9 10 11 12 13 14 15 16 17 18 19 20 21 22 23 24 25 26 27 28 29
000
ASUS41 KAKQ 250410
RWRAKQ

REGIONAL WEATHER ROUNDUP
NATIONAL WEATHER SERVICE WAKEFIELD VA
1200 AM EDT SAT OCT 25 2014

Note: "fair" indicates few or no clouds below 12,000 feet with no
significant weather and/or obstructions to visibility. * = Denotes
station may not report precipitation (e.g., rain,snow,etc.),
thunder or fog.

VAZ042-051-052>054-056-250500-
NORTHERN VIRGINIA

CITY           SKY/WX    TMP DP  RH WIND       PRES   REMARKS
WASH NATIONAL  PTCLDY    57  38  48 N8        29.96S
DULLES         PTCLDY    46  37  71 CALM      29.97S
FORT BELVOIR   CLEAR     43  41  93 SE2       29.96S
QUANTICO       CLEAR     50  43  77 CALM      29.98R
FREDERICKSBRG* CLEAR     44  44 100 CALM      29.97S
STAFFORD*      CLEAR     39  39 100 CALM      30.01S
WARRENTON      CLEAR     41  41  99 CALM      29.97S
CULPEPER*      CLEAR     39  37  93 CALM      29.98F
MANASSAS*      CLEAR     43  43 100 CALM      29.97S
LEESBURG*      CLEAR     48  41  76 NW6       29.98S
WINCHESTER     CLEAR     46  34  61 CALM      29.99S
FRONT ROYAL*   CLEAR     43  36  75 CALM      29.99S
LURAY*         CLEAR     43  39  87 CALM      30.00S
$$

VAZ048-049-060>072-079>083-250500-
CENTRAL AND SOUTH CENTRAL VIRGINIA...AND NORTH CENTRAL NORTH CAROLINA

CITY           SKY/WX    TMP DP  RH WIND       PRES   REMARKS
RICHMOND       PTCLDY    48  44  86 CALM      29.96S
CHESTERFIELD*    N/A    N/A N/A N/A MISG        N/A
PETERSBURG*    CLEAR     40  39  95 CALM      29.97S
HANOVER        CLEAR     44  43  96 CALM      29.99R
TAPPAHANNOCK*  CLEAR     43  40  88 CALM      29.97S
CHARLOTTSVILLE CLEAR     45  40  82 CALM      29.97S
ORANGE*        CLEAR     41  39  93 CALM      29.98S
LOUISA*        CLEAR     43  41  93 CALM      29.96S
FARMVILLE*     PTCLDY    43  43 100 CALM      29.95S
CREWE*         CLEAR     44  42  95 CALM      29.97S
FORT PICKETT*  CLEAR     48  47  97 CALM      29.97S
LUNENBURG*     CLEAR     52  47  83 CALM      29.97S
SOUTH HILL*    CLEAR     46  46 100 CALM      30.02F
LAWRENCEVILLE* CLEAR     46  45  99 CALM      29.97S
ROANOKE RAPIDS CLEAR     45  43  93 CALM      29.97F
RALEIGH        PTCLDY    47  45  93 CALM      29.99F
$$

VAZ088>098-250500-
SOUTHEAST VIRGINIA

CITY           SKY/WX    TMP DP  RH WIND       PRES   REMARKS
NORFOLK        CLEAR     51  45  79 SW5       29.95S
VIRGINIA BEACH CLEAR     51  43  74 CALM      29.94F
NORFOLK NAVAL  PTCLDY    56  48  74 W5        29.96F
WEST POINT*    CLEAR     43  40  90 CALM      29.98R
NEWPORT NEWS   CLEAR     46  45  96 CALM      29.95S
LANGLEY AFB    CLEAR     49  49  99 NW1       29.95S
FORT EUSTIS    CLEAR     49  49 100 NW2       29.94R
WILLIAMSBURG*  CLEAR     50  46  87 NW3       29.96S
HR EXEC AP*    CLEAR     39  37  93 CALM      29.98S
FRANKLIN*      CLEAR     45  45 100 CALM      29.97S
WAKEFIELD      CLEAR     45  41  86 CALM      29.96S
$$

VAZ020-022-025-037-045-250500-
WEST CENTRAL AND SOUTHWEST VIRGINIA

CITY           SKY/WX    TMP DP  RH WIND       PRES   REMARKS
STAUNTON*      CLEAR     38  35  87 CALM      30.02S
HOT SPRINGS VA CLEAR     43  34  69 W13       30.03S
LYNCHBURG      CLEAR     41  40  96 CALM      30.00S
DANVILLE       CLEAR     46  44  93 SW5       30.00S
SOUTH BOSTON*  NOT AVBL
MARTINSVILLE   CLEAR     41  41 100 CALM      30.03F FOG
ROANOKE        CLEAR     48  34  58 NW5       30.05S
BLACKSBURG     CLEAR     45  43  93 CALM      30.07S
DUBLIN*        CLEAR     47  39  73 CALM      30.08R
MARION*        CLEAR     44  38  80 SW6       30.10S
HILLSVILLE*    CLEAR     46  35  65 NW6       30.06S
RICHLANDS*     CLEAR     47  40  76 CALM      30.10R
WISE*          CLEAR     43  37  81 CALM      30.10F
ABINGDON*      CLEAR     43  39  86 CALM      30.09R
$$

MDZ021>025-VAZ099-100-250500-
SOUTHERN MARYLAND AND THE DELMARVA PENINSULA

CITY           SKY/WX    TMP DP  RH WIND       PRES   REMARKS
PATUXENT RIVER CLEAR     55  37  50 W9        29.94S
BAY BRIDGE APT   N/A     55  37  50 W8        29.94R
LEONARDTOWN    CLEAR     46  37  71 W3        29.96S
DOVER          CLEAR     55  39  56 W8        29.88S
GEORGETOWN     CLEAR     54  40  59 W5        29.92R
EASTON         CLEAR     54  42  64 NW3       29.97S
CAMBRIDGE      CLEAR     55  41  58 NW6       29.93R
SALISBURY      CLEAR     56  42  59 NW8       29.92S
OCEAN CITY     CLEAR     53  41  63 NW7       29.91R
WALLOPS ISLAND CLEAR     57  45  64 NW8       29.93R
ACCOMACK*      CLEAR     55  43  62 NW7       29.94S
$$

NCZ012>017-030>032-250500-
EASTERN NORTH CAROLINA

CITY           SKY/WX    TMP DP  RH WIND       PRES   REMARKS
ELIZABETH CITY FAIR      51  44  77 W5        29.96F
AHOSKIE*       CLEAR     46  45  97 CALM      29.98S
EDENTON*       FAIR      50  47  92 CALM      29.96F
CURRITUCK*     FAIR      49  45  88 SW5       29.97S
KILL DEVIL HLS FAIR      58  50  73 NW3       29.94F
MANTEO         FAIR      57  54  88 CALM      29.96F
CAPE HATTERAS  CLEAR     59  55  87 NW5       29.96F
TARBORO*       CLEAR     45  44  96 CALM      29.98F
GOLDSBORO      PTCLDY    52  50  93 CALM      29.97S FOG
WASHINGTON     CLEAR     49  48  96 CALM      29.98F
GREENVILLE     LGT RAIN  48  48 100 CALM      30.00S VSB 3/4
NEW BERN       CLEAR     52  48  86 CALM      29.99F
WILMINGTON     PTCLDY    52  50  93 CALM      30.00R
$$

VAZ048-250500-
ELSEWHERE

CITY           SKY/WX    TMP DP  RH WIND       PRES   REMARKS
HARRISBURG PA  PTCLDY    53  39  59 NW9       29.93S
BALTIMORE      PTCLDY    50  37  61 W7        29.94R
ANNAPOLIS      CLEAR     55  37  50 W6        29.93S
ANDREWS AFB    CLEAR     56  38  51 NW15      29.95S
WILMINGTON DE  CLEAR     54  39  57 NW10      29.91R
PHILADELPHIA   PTCLDY    57  38  48 W7        29.89R
WILDWOOD NJ*   PTCLDY    59  39  47 NW8       29.90S
ATLANTIC CITY  MOCLDY    53  40  61 W8        29.87R
HENDERSON NC   PTCLDY    48  45  88 SW3       29.99S
GREENSBORO     PTCLDY    49  42  77 CALM      29.99F
ROCKY MOUNT    CLEAR     46  44  93 CALM      29.98F
FAYETTEVILLE   PTCLDY    54  49  83 W3        29.99F
CHARLOTTE      CLEAR     50  45  83 CALM      30.02F
$$

VAZ100-250500-
MARINE

STATION/POSITION TIME  TEMP    WIND        PRES    WAVE   SWELL
                       AIR SEA DIR/SP/G            HT/PER HT/PER
                 (UTC) (F)     (DEG/KT/KT) (MB)    (FT/S) (FT/S)
44066 TX TWR #4  0400   60 66  310/ 10/ 14 1009.1F   3/ 5
CAPE MAY NJ      0400   61 64  310/  7/ 15 1011.6R
LEWES DE         0400   57 61  290/  9/ 10 1012.2R
15NM E FENWICK I 0400   63 64  290/ 19/ 21 1011.5R   4/ 4   2/10
OCEAN-CITY-INLET 0400   57 62  320/  9/ 11 1012.1S
WACHAPREAGUE VA  0400   55 61  270/  2/  4 1013.6S
THOMAS POINT MD  0400   57 62  300/ 11/ 12 1014.6S
GOOSES REEF MD   0400   59     320/ 12/ 14 1014.2F
COVE POINT MD    0400   58     330/  8/ 11 1013.8R
SOLOMONS ISLAND  0400      63                N/A
BISHOPS HEAD MD  0400   57 57  320/  8/ 10 1013.1S
PINEY POINT MD   0400          340/ 15/ 16   N/A
POTOMAC MD       0400   61     340/ 14/ 17 1013.2S
CAMBRIDGE MD     0400   60 60  310/  8/ 10 1013.2S
LEWISETTA VA     0400   56 60  300/  5/  6 1013.9R
RAPPAHANNOCK LGT 0400          310/ 13/ 15 1014.3R
STINGRAY PT      0400   60     290/ 10/ 10 1014.7S
YORK RVR RNG VA  0400   59     330/  5/  5 1013.7R
YORKTOWN VA      0400   56 64  260/  3/  4 1013.8R
JAMESTOWN VA     0400   56     290/  4/  6   N/A
DOMINION TERM VA 0400   59     280/  7/  7 1014.0F
KIPTOPEKE VA     0400      65  350/  3/  4   N/A
CHES BAY BRIDGE  0400   61 65  240/  6/  6 1013.4F
CHESAPEAKE LGHT  0300   64     300/ 10/ 10 1014.6R
WILLOUBY STN VA  0400   61     270/ 10/ 11 1012.6S
S CRANEY ISL VA  0400           CALM  /  1 1014.0R
CAPE HENRY BUOY  0400      67                N/A     3/ 7
1ST LANDING BUOY 0400   63     280/  8/  8 1013.6S
CAPE CHARLES BUO 0400      66                N/A     2/11   2/11
64NM E OF VA BCH 0400   65 66  330/ 14/ 16 1012.8F   4/ 5   2/ 7
DUCK PIER NC     0400   60 66  290/  9/ 10 1013.5F
44100 DUCK FRF   0400      67                N/A     3/ 9   2/11
44056 DUCK FRF   0400                        N/A     3/10
OREGON INLET NC  0400   59 64  280/  6/  8 1014.3F
HATTERAS NC      0400   65 65  310/ 10/ 12 1015.0S
DIAMOND SHLS NC  0400   66     320/ 16/ 17 1014.5F   4/ 9   2/ 9
CAPE LOOKOUT NC  0300   66     320/  8/ 10 1014.9F
$$



USA.gov is the U.S. government's official web portal to all federal, state and local government web resources and services.